Weather History for Guymon, OK

Change the Weather History Date:

Monday, May 7, 2012

  Actual Average Record
Temperature  
Mean Temperature 60 °F 62 °F  
Max Temperature 67 °F 77 °F 95 °F (2002)
Min Temperature 52 °F 47 °F 35 °F (1999)
Degree Days  
Heating Degree Days 5 5  
Month to date heating degree days 10 37  
Since 1 July heating degree days 3761 4390  
Cooling Degree Days 0 2  
Month to date cooling degree days 42 10  
Year to date cooling degree days 110 25  
Growing Degree Days 10 (Base 50)    
Moisture  
Dew Point 37 °F    
Average Humidity 47    
Maximum Humidity 64    
Minimum Humidity 29    
Precipitation  
Precipitation T in 0.06 in 0.94 in (2006)
Month to date precipitation T 0.39  
Year to date precipitation 3.60 4.20  
Snow  
Snow 0.00 in - - ()
Month to date snowfall 0.0  
Since 1 July snowfall 9.1  
Snow Depth 0.00 in    
Sea Level Pressure  
Sea Level Pressure 30.08 in    
Wind  
Wind Speed 16 mph (NNE)    
Max Wind Speed 28 mph    
Max Gust Speed 35 mph    
Visibility 10 miles    
Events      
T = Trace of Precipitation, MM = Missing Value Source: NWS Daily Summary

Daily Weather History Graph

Daily Weather History Graph

Search for Another Location

Airport:

Trip Planner

Search our weather history database for the weather conditions in past years. The results will help you decide how hot, cold, wet, or windy it might be!

Date:

Astronomy

May. 07, 2012 Rise Set
Actual Time 6:45 AM CDT 8:40 PM CDT
Civil Twilight 6:17 AM CDT 9:08 PM CDT
Nautical Twilight 5:42 AM CDT 9:42 PM CDT
Astronomical Twilight 5:06 AM CDT 10:19 PM CDT
Moon 10:51 PM CDT (5/7) 7:55 AM CDT (5/7)
Length of Visible Light 14h 51m
Length of Day
13h 54m
Waning Gibbous, 96% of the Moon is Illuminated
May 7
Waning Gibbous
May 12
Last Quarter
May 20
New
May 28
First Quarter
Jun 4
Full

Hourly Weather History & Observations

Time (CDT) Temp. Dew Point Humidity Pressure Visibility Wind Dir Wind Speed Gust Speed Precip Events Conditions
12:53 AM 61.0 °F 48.9 °F 64% 30.03 in 10.0 mi NNE 15.0 mph - 0.00 in   Overcast
1:53 AM 60.1 °F 46.0 °F 60% 30.03 in 10.0 mi NE 17.3 mph 26.5 mph N/A   Overcast
2:53 AM 57.9 °F 42.1 °F 56% 30.01 in 10.0 mi NNE 15.0 mph - N/A   Overcast
3:53 AM 55.9 °F 36.0 °F 47% 30.06 in 10.0 mi North 15.0 mph - N/A   Overcast
4:53 AM 55.0 °F 34.0 °F 45% 30.03 in 10.0 mi North 17.3 mph - N/A   Overcast
5:53 AM 54.0 °F 33.1 °F 45% 29.99 in 10.0 mi NE 16.1 mph 25.3 mph N/A   Partly Cloudy
6:53 AM 54.0 °F 35.1 °F 49% 30.06 in 10.0 mi NNE 12.7 mph - N/A   Mostly Cloudy
7:53 AM 54.0 °F 36.0 °F 51% 30.11 in 10.0 mi NNE 15.0 mph - N/A   Overcast
8:53 AM 55.0 °F 37.0 °F 51% 30.16 in 10.0 mi North 15.0 mph - N/A   Overcast
9:53 AM 54.0 °F 41.0 °F 62% 30.14 in 10.0 mi North 18.4 mph 27.6 mph 0.00 in   Overcast
10:53 AM 57.9 °F 37.9 °F 47% 30.13 in 10.0 mi NNE 23.0 mph 29.9 mph N/A   Overcast
11:53 AM 60.1 °F 36.0 °F 41% 30.13 in 10.0 mi NNE 23.0 mph 31.1 mph N/A   Overcast
12:53 PM 62.1 °F 36.0 °F 38% 30.11 in 10.0 mi NNE 24.2 mph 29.9 mph N/A   Overcast
1:53 PM 63.0 °F 37.0 °F 38% 30.11 in 10.0 mi NNE 18.4 mph 32.2 mph N/A   Overcast
2:53 PM 64.0 °F 35.1 °F 34% 30.09 in 10.0 mi NNE 21.9 mph - N/A   Overcast
3:53 PM 66.0 °F 37.9 °F 36% 30.06 in 10.0 mi NNE 20.7 mph 26.5 mph N/A   Overcast
4:53 PM 64.9 °F 36.0 °F 34% 30.05 in 10.0 mi NE 16.1 mph 27.6 mph N/A   Overcast
5:53 PM 66.0 °F 34.0 °F 30% 30.01 in 10.0 mi NE 21.9 mph 29.9 mph N/A   Partly Cloudy
6:53 PM 64.9 °F 34.0 °F 32% 30.02 in 10.0 mi ENE 16.1 mph 24.2 mph N/A   Mostly Cloudy
7:53 PM 61.0 °F 36.0 °F 39% 30.07 in 10.0 mi NNE 17.3 mph - N/A   Overcast
8:53 PM 60.1 °F 36.0 °F 41% 30.09 in 10.0 mi NNE 15.0 mph - N/A   Overcast
9:53 PM 59.0 °F 35.1 °F 41% 30.12 in 10.0 mi NE 8.1 mph - N/A   Overcast
10:53 PM 57.9 °F 35.1 °F 42% 30.14 in 10.0 mi NNE 9.2 mph - N/A   Overcast
11:53 PM 55.9 °F 35.1 °F 45% 30.12 in 10.0 mi NE 8.1 mph - N/A   Mostly Cloudy